Overview Statistics Trail Chart Weather Telemetry Raw packets
 

This is the latest recevied weather packets stored in our database for station/object F5IOR. If no packets are shown the sender has not sent any weather packets the latest 10 day(s).

<< 4 5 6 7 8 9 10 >>
Time Temp. Humidity Pressure Rain* Wind** Luminosity Snow
1788267963 25° C 41% 993.6 hPa 0 mm - - -
1788266163 25° C 41% 993.7 hPa 0 mm - - -
1788264363 24.44° C 43% 993.9 hPa 0 mm - - -
1788262563 24.44° C 43% 993.9 hPa 0 mm - - -
1788260763 23.89° C 49% 994.2 hPa 0 mm - - -
1788258963 23.33° C 53% 994.4 hPa 0 mm - - -
1788257163 21.11° C 68% 995 hPa 0 mm - - -
1788255363 20.56° C 69% 994.9 hPa 0 mm - - -
1788254408 20° C 71% 994.9 hPa 0 mm - - -
1788253443 19.44° C 72% 994.9 hPa 0 mm - - -
1788252483 18.89° C 74% 994.9 hPa 0 mm - - -
1788251523 17.78° C 77% 994.9 hPa 0 mm - - -
1788251043 17.78° C 77% 994.9 hPa 0 mm - - -
1788250563 17.78° C 77% 994.9 hPa 0 mm - - -
1788250083 17.22° C 79% 994.8 hPa 0 mm - - -
1788249603 17.22° C 79% 994.8 hPa 0 mm - - -
1788249363 16.67° C 81% 994.7 hPa 0 mm - - -
1788249123 16.67° C 81% 994.7 hPa 0 mm - - -
1788248883 16.67° C 81% 994.7 hPa 0 mm - - -
1788248643 16.67° C 81% 994.7 hPa 0 mm - - -
1788248523 16.67° C 81% 994.7 hPa 0 mm - - -
1788248403 16.67° C 81% 994.7 hPa 0 mm - - -
1788248283 16.67° C 81% 994.7 hPa 0 mm - - -
1788248163 16.67° C 81% 994.7 hPa 0 mm - - -
1788248103 16.67° C 81% 994.7 hPa 0 mm - - -

* Rain latest hour (hover to see other rain measurements)
** Current wind speed in m/s (hover to see current wind gust speed)